Theta_e
349 350 349 348 347 347 345 341 339 331 332 339 342 347 348 353 353 352 352 347 345 341 339 337 337 337 337 337 337 338 339 341 344 345 346 349 355 359
349 348 347 349 349 345 346 345 344 342 331 337 346 345 347 352 351 351 352 347 342 339 335 333 333 333 333 333 333 334 336 337 339 342 345 346 349 351
348 348 348 348 348 345 347 347 344 343 336 340 345 349 344 342 343 346 351 342 336 334 331 329 328 329 329 328 328 327 329 331 334 338 340 341 342 345
350 350 345 352 347 348 346 345 345 346 340 336 342 342 341 339 344 342 350 342 334 329 326 325 324 324 323 322 320 320 320 322 325 328 332 334 334 336
349 348 348 347 346 345 345 344 346 349 345 340 337 342 343 344 340 343 343 333 333 328 325 324 323 322 321 320 318 315 314 315 317 320 323 326 328 330
350 350 348 348 346 348 346 345 346 342 338 335 338 339 341 345 341 334 337 338 331 331 326 322 321 322 321 321 319 316 314 313 313 314 316 319 320 322
348 349 349 348 344 342 345 343 343 340 340 336 336 337 336 338 336 337 338 340 336 337 326 320 322 317 314 317 319 318 316 314 313 312 312 314 315 316
344 347 347 343 339 338 337 336 338 339 337 337 336 333 334 335 337 337 336 336 333 340 331 320 325 317 309 310 315 315 315 314 313 312 312 312 314 314
341 342 345 342 337 334 331 330 331 332 333 333 335 337 333 329 328 334 333 334 335 339 335 331 322 309 311 311 315 315 313 313 312 312 311 311 311 311
337 334 338 330 323 326 333 338 333 326 324 329 336 328 325 321 323 326 329 333 338 328 332 327 316 311 314 308 315 315 314 313 312 311 310 309 307 308
328 323 328 323 318 317 326 329 336 327 319 319 320 320 319 320 326 327 321 323 325 328 317 326 326 313 310 306 308 315 313 311 310 311 310 308 306 306
325 316 317 315 315 313 315 322 328 334 328 323 320 319 320 323 325 321 320 315 317 319 313 318 326 323 315 313 308 307 307 309 308 307 309 308 305 305
327 321 319 315 314 312 312 313 321 320 324 329 328 330 328 323 322 319 316 315 315 313 315 317 315 310 313 313 310 307 307 305 303 303 306 305 305 307
320 321 321 315 311 311 312 317 315 317 320 323 327 328 327 320 320 317 315 313 316 314 313 314 313 310 311 310 309 311 311 309 310 308 306 304 306 307
315 316 314 314 314 316 318 317 315 317 322 323 320 317 317 319 318 317 316 312 313 313 314 313 313 313 313 312 307 304 308 308 308 306 307 306 304 305
309 308 315 314 313 313 314 315 314 316 314 315 317 314 313 315 313 315 313 313 311 310 312 313 312 313 311 313 308 303 305 305 306 306 307 307 308 304
302 310 314 317 317 318 317 318 318 316 313 316 315 311 310 310 308 309 307 306 305 307 309 311 313 310 307 307 306 304 304 304 304 304 303 303 306 304
300 303 304 306 310 313 315 316 316 315 313 313 311 312 310 310 308 307 307 304 303 305 306 308 309 308 307 307 307 302 302 303 302 304 305 300 301 304
301 303 305 306 308 309 312 313 313 317 314 312 309 307 308 306 303 302 303 303 302 304 304 303 302 303 300 300 302 308 301 301 301 301 301 300 299 302
301 304 307 310 311 310 312 312 311 310 309 309 308 307 307 303 302 303 303 304 302 302 302 303 302 301 300 299 300 303 305 303 301 300 299 300 301 308
307 308 308 308 309 310 311 312 312 310 310 308 307 307 306 305 303 302 299 300 299 299 298 301 301 305 299 302 299 300 301 304 304 300 299 297 296 295
309 309 309 310 309 310 309 311 311 309 308 307 306 306 305 302 301 301 301 300 298 297 296 302 300 301 301 301 298 299 300 300 303 307 308 304 297 293
311 311 310 311 312 312 310 311 309 308 308 308 306 305 303 301 301 301 301 300 299 299 299 299 301 302 299 299 299 297 297 299 298 302 304 307 308 309
Wind_Speed
4 4 3 4 3 2 2 3 2 2 3 5 3 0 2 1 6 3 4 6 7 8 7 11 11 10 11 11 11 12 11 11 10 7 3 1 2 4
3 1 2 2 3 1 2 1 1 3 2 2 3 2 6 4 8 7 4 7 10 10 8 11 11 11 12 13 14 13 13 13 12 12 10 7 5 5
4 3 5 4 4 2 1 2 3 2 2 3 1 3 4 3 3 4 5 7 6 9 10 12 11 12 12 14 15 14 14 14 15 14 14 13 11 9
6 5 6 3 4 4 1 1 2 1 2 2 2 2 1 2 1 5 5 6 4 9 9 12 11 12 12 14 14 14 14 14 14 15 16 16 15 14
5 5 5 3 5 3 2 2 2 1 2 2 2 2 2 1 1 2 4 4 4 10 10 10 11 11 11 10 13 12 11 12 13 13 14 15 16 17
4 4 4 5 5 4 3 4 2 1 1 1 1 2 1 3 1 2 2 2 2 4 6 3 7 12 11 8 10 11 10 10 11 11 12 13 15 17
4 4 2 1 2 1 1 3 3 2 2 1 2 1 2 2 2 2 1 2 3 3 2 2 2 2 3 6 9 8 8 10 10 10 10 11 12 14
3 3 0 6 5 2 3 2 2 2 2 3 2 2 2 1 1 1 1 3 3 5 3 4 3 1 1 2 6 7 8 8 9 9 9 10 11 12
5 5 4 5 5 3 2 3 5 7 4 2 2 1 1 1 3 2 2 1 1 3 4 4 3 3 1 2 4 6 8 8 7 7 8 9 9 9
5 5 5 5 6 5 2 1 3 3 4 2 1 2 2 0 1 2 2 4 2 3 2 3 3 3 3 3 7 5 7 8 7 6 7 8 9 9
5 6 5 5 6 8 4 3 2 2 2 5 4 4 3 0 1 1 3 3 1 1 4 3 4 3 3 3 4 7 3 1 6 4 5 10 9 8
5 6 11 6 6 6 3 2 3 2 3 4 4 5 6 1 7 5 3 1 1 1 2 0 2 4 3 3 4 3 3 5 1 8 8 11 9 5
4 3 3 6 7 6 2 2 2 4 5 5 5 4 3 4 2 3 4 3 1 1 1 0 2 1 2 3 3 4 4 2 1 1 6 7 7 9
3 3 4 6 7 6 4 5 5 5 3 4 3 3 2 4 3 3 4 4 3 1 1 1 0 1 1 2 3 3 3 2 3 3 2 5 9 9
2 5 7 7 7 5 6 6 6 3 4 2 1 3 2 3 4 2 4 4 2 0 1 2 2 3 2 2 3 2 4 2 1 2 4 4 4 4
3 3 4 6 7 5 4 2 1 0 2 2 2 1 1 1 2 2 2 2 1 3 2 2 2 3 2 2 1 2 3 4 0 1 1 3 4 4
5 3 4 3 4 4 3 3 2 1 2 2 1 0 0 1 0 0 1 1 0 2 2 2 3 4 4 2 3 2 3 4 3 1 3 3 3 5
3 3 3 2 3 2 3 3 2 2 1 1 2 1 1 2 1 1 0 0 1 2 1 2 1 1 3 3 3 2 2 3 1 2 2 2 3 2
1 2 3 4 4 5 4 1 1 3 4 3 1 2 3 2 2 1 1 1 2 1 2 3 2 3 2 1 4 1 3 1 2 1 2 2 2 4
1 2 3 3 3 3 4 3 2 1 1 2 1 1 1 1 1 2 2 1 1 2 2 2 3 1 3 4 2 3 3 3 3 2 1 1 3 2
2 2 2 2 1 1 2 4 3 3 1 1 1 2 2 1 2 3 1 1 1 0 0 1 3 6 3 2 2 3 3 6 5 5 3 2 2 1
4 4 4 4 4 3 2 2 2 3 3 3 2 1 0 1 1 2 2 2 2 1 1 2 2 1 1 2 2 3 2 3 5 7 7 8 5 3
5 4 5 4 4 3 2 3 2 0 4 3 4 2 3 2 1 2 3 3 3 0 2 2 2 2 3 3 4 3 4 3 2 1 3 10 12 11
Wind_Direction
242 250 274 285 320 299 54 46 209 357 338 329 79 59 297 337 354 286 203 153 112 100 98 88 71 63 60 58 51 44 38 31 30 38 40 159 197 173
263 20 297 290 289 359 33 149 226 132 43 289 24 41 16 39 26 43 50 72 56 63 83 81 74 71 67 53 48 47 38 34 32 38 52 75 89 109
274 268 271 274 275 290 326 343 3 70 150 292 358 20 37 8 4 28 74 84 76 72 78 79 72 70 70 72 64 55 54 50 44 46 49 49 48 52
256 268 283 296 313 278 322 1 45 87 123 275 276 5 78 261 60 83 87 102 103 91 91 86 80 83 76 79 73 67 62 62 62 56 55 57 54 49
246 254 263 293 289 242 251 291 180 179 149 161 264 272 227 258 205 84 104 84 101 113 78 84 90 86 83 74 80 75 71 64 60 59 63 63 63 65
268 256 261 259 256 260 260 249 249 208 232 268 261 269 239 260 265 131 176 164 122 101 107 143 104 98 86 83 81 84 82 77 70 67 70 73 77 76
267 268 280 119 116 315 254 265 225 214 205 207 258 252 286 337 265 292 251 138 105 148 162 173 135 119 95 87 95 93 83 80 78 72 70 74 78 82
307 322 54 117 84 43 112 115 137 199 214 190 209 230 259 125 264 241 250 166 195 168 155 196 163 90 84 63 107 111 102 101 102 95 84 78 81 85
51 7 342 61 47 104 82 83 78 65 60 165 190 184 230 317 329 327 353 292 225 122 152 167 145 135 139 139 171 137 116 101 101 114 118 106 97 96
59 40 55 63 34 23 3 175 118 50 10 344 128 128 132 252 273 243 257 271 69 61 83 155 143 162 173 194 205 186 148 132 130 146 144 141 126 115
69 48 35 72 37 19 23 27 23 62 51 358 35 149 178 0 298 75 10 30 321 87 355 150 165 135 169 187 212 215 231 150 108 86 160 155 139 116
80 72 50 38 9 34 29 2 350 43 195 244 230 256 238 165 84 95 138 138 305 114 353 22 153 143 178 194 190 184 210 244 248 87 95 146 133 111
83 48 32 346 339 342 347 286 270 329 302 249 262 240 204 137 80 87 93 121 126 141 282 146 333 350 133 150 187 184 182 182 227 337 102 123 172 156
59 344 293 312 324 318 317 321 323 298 299 301 290 272 166 149 164 135 114 85 52 62 322 86 218 332 150 145 172 150 200 171 175 161 145 81 52 100
342 284 284 290 291 307 295 306 329 327 321 333 353 50 59 136 153 110 74 85 70 195 2 9 69 351 30 312 144 133 125 86 82 108 130 156 153 144
341 309 273 285 282 268 323 318 257 83 65 3 18 43 77 46 34 23 54 21 29 299 353 34 77 95 50 347 30 105 116 141 256 23 58 30 139 125
322 345 1 0 347 313 279 263 252 343 28 4 67 94 24 62 224 145 96 32 133 204 240 304 22 82 90 95 71 107 119 117 167 162 61 58 77 134
12 340 327 326 298 296 323 279 289 315 304 328 340 345 307 334 310 321 54 102 286 304 143 187 197 21 28 28 59 144 87 130 148 71 92 95 113 200
4 310 306 303 301 316 304 294 216 221 173 127 105 52 40 37 37 347 320 294 296 291 224 188 140 105 84 29 307 240 137 111 95 53 108 132 187 191
280 308 313 341 8 11 357 330 242 230 93 119 84 42 342 241 321 308 318 285 43 353 18 6 68 97 145 185 194 256 173 144 145 176 238 287 268 86
269 277 282 308 314 354 2 4 85 153 120 131 79 40 342 100 63 35 16 322 199 90 346 186 196 168 151 92 41 299 273 229 186 171 183 155 215 317
265 272 276 273 275 268 295 350 156 173 173 172 179 156 138 138 74 352 333 235 249 214 239 228 179 116 135 160 225 233 253 238 252 226 206 172 161 211
286 305 322 311 298 277 287 292 258 220 49 17 319 258 179 191 197 305 289 286 236 213 142 165 283 269 238 203 209 249 202 224 235 297 340 233 236 253